Weather History for Joplin, MO

Change the Weather History Date:

Sunday, April 7, 2013

  Actual Average Record
Temperature  
Mean Temperature 66 °F 56 °F  
Max Temperature 77 °F 68 °F 84 °F (1977)
Min Temperature 55 °F 44 °F 23 °F (2007)
Degree Days  
Heating Degree Days 0 10  
Month to date heating degree days 95 77  
Since 1 July heating degree days 3868 3839  
Cooling Degree Days 1 1  
Month to date cooling degree days 2 7  
Year to date cooling degree days 3 17  
Growing Degree Days 14 (Base 50)    
Moisture  
Dew Point 53 °F    
Average Humidity 68    
Maximum Humidity 86    
Minimum Humidity 49    
Precipitation  
Precipitation 0.00 in 0.13 in 1.07 in (1986)
Month to date precipitation 0.14 0.85  
Year to date precipitation 7.99 8.62  
Snow  
Snow 0.00 in - - ()
Month to date snowfall T  
Snow Depth 0.00 in    
Sea Level Pressure  
Sea Level Pressure 29.81 in    
Wind  
Wind Speed 13 mph (South)    
Max Wind Speed 25 mph    
Max Gust Speed 31 mph    
Visibility 10 miles    
Events      
T = Trace of Precipitation, MM = Missing Value Source: NWS Daily Summary

Daily Weather History Graph

Daily Weather History Graph

Search for Another Location

Airport:

Trip Planner

Search our weather history database for the weather conditions in past years. The results will help you decide how hot, cold, wet, or windy it might be!

Date:

Astronomy

Apr. 07, 2013 Rise Set
Actual Time 6:54 AM CDT 7:46 PM CDT
Civil Twilight 6:28 AM CDT 8:12 PM CDT
Nautical Twilight 5:56 AM CDT 8:43 PM CDT
Astronomical Twilight 5:24 AM CDT 9:16 PM CDT
Moon 5:09 AM CDT (4/7) 5:21 PM CDT (4/7)
Length of Visible Light 13h 44m
Length of Day
12h 51m
Waning Crescent, 8% of the Moon is Illuminated
Apr 7
Waning Crescent
Apr 10
New
Apr 18
First Quarter
Apr 25
Full
May 2
Last Quarter

Hourly Weather History & Observations

Time (CDT) Temp. Dew Point Humidity Pressure Visibility Wind Dir Wind Speed Gust Speed Precip Events Conditions
12:53 AM 64.0 °F 46.9 °F 54% 29.84 in 10.0 mi SW 15.0 mph - N/A   Scattered Clouds
1:53 AM 62.1 °F 48.9 °F 62% 29.84 in 10.0 mi SSW 11.5 mph - N/A   Clear
2:53 AM 57.9 °F 48.9 °F 72% 29.84 in 10.0 mi SSW 8.1 mph - N/A   Clear
3:53 AM 59.0 °F 50.0 °F 72% 29.85 in 10.0 mi SSW 9.2 mph - N/A   Clear
4:53 AM 57.9 °F 50.0 °F 75% 29.84 in 10.0 mi SSW 11.5 mph - N/A   Clear
5:53 AM 57.0 °F 51.1 °F 81% 29.86 in 10.0 mi SSW 10.4 mph - N/A   Clear
6:53 AM 55.9 °F 51.1 °F 84% 29.86 in 10.0 mi SSW 9.2 mph - N/A   Clear
7:53 AM 59.0 °F 54.0 °F 83% 29.88 in 10.0 mi SSW 9.2 mph - N/A   Clear
8:53 AM 63.0 °F 55.0 °F 75% 29.88 in 10.0 mi SSW 13.8 mph - N/A   Clear
9:53 AM 64.9 °F 55.9 °F 73% 29.88 in 10.0 mi SSW 17.3 mph 21.9 mph N/A   Clear
10:53 AM 69.1 °F 57.0 °F 65% 29.89 in 10.0 mi SW 12.7 mph - N/A   Clear
11:53 AM 69.1 °F 57.0 °F 65% 29.89 in 10.0 mi SSW 5.8 mph - N/A   Clear
12:53 PM 70.0 °F 57.0 °F 63% 29.86 in 10.0 mi South 9.2 mph - N/A   Partly Cloudy
1:53 PM 72.0 °F 57.0 °F 59% 29.81 in 10.0 mi South 10.4 mph - N/A   Scattered Clouds
2:53 PM 73.9 °F 55.0 °F 52% 29.76 in 10.0 mi SSE 15.0 mph - N/A   Mostly Cloudy
3:53 PM 73.9 °F 55.0 °F 52% 29.73 in 10.0 mi SSE 13.8 mph - N/A   Partly Cloudy
4:53 PM 73.9 °F 54.0 °F 50% 29.71 in 10.0 mi South 16.1 mph 25.3 mph N/A   Mostly Cloudy
5:53 PM 73.9 °F 54.0 °F 50% 29.69 in 10.0 mi South 24.2 mph 31.1 mph N/A   Mostly Cloudy
6:53 PM 71.1 °F 54.0 °F 55% 29.72 in 10.0 mi South 16.1 mph - N/A   Overcast
7:53 PM 69.1 °F 55.0 °F 61% 29.73 in 10.0 mi South 15.0 mph - N/A   Overcast
8:53 PM 66.9 °F 53.1 °F 61% 29.75 in 10.0 mi SSE 16.1 mph - N/A   Overcast
9:53 PM 66.0 °F 54.0 °F 65% 29.76 in 10.0 mi South 12.7 mph - N/A   Overcast
10:53 PM 66.0 °F 54.0 °F 65% 29.75 in 10.0 mi South 12.7 mph - N/A   Overcast
11:53 PM 64.9 °F 54.0 °F 68% 29.74 in 10.0 mi South 13.8 mph - N/A   Mostly Cloudy